ORBCOMM FM02 [-] (23546 NORAD) Tracking and Keplerian Element Data

This shows tracking and keplerian element data for the satellite.

Feedback or suggestion? Click here.




ElementValue
Catalog23546
NameORBCOMM FM02 [-]
Epoch Orbit51465
Epoch Day239.1304265
Epoch Year2023
RAAN278.872
Inclination69.9698
Eccentricity0.0009297
Argument of Perigee244.1742
Mean Anonmoly115.8446
Mean Motion14.75617256
Decay Rate4.291E-05
L11 23546U 95017B 23239.13042650 .00004291 00000+0 63823-3 0 9992
L22 23546 69.9698 278.8720 0009297 244.1742 115.8446 14.75617256514658



Live tracking and technical data element details for ORBCOMM FM02 [-] (NORAD 23546). ORBCOMM FM02 [-] can be tracked NOW for your location showing map with azimuth and elevation plus other details from your city location.







IsCatalogInMostPopularTable: catalog: 23546, numindb: 330
Update: records affected: 1



GetName: 23546 ORBCOMM FM02 [-]

Hit Count: updated at: Thu, 22 May 2025 04:34:03 GMT